Kirkwall current weather conditions

sailwx.info

Wind from 200 at 4 knots

Air temperature 6.0° C
Visibility: greater than 5.4 NM
Dewpoint -1.0° C

Last reported at 2017-Mar-23 09:20 UTC.
Time now 2017-Mar-23 10:34 UTC

Location: N 58°57' W 002°54'.
View on Google Maps.

See reports from other nearby stations

  
Tides and Currents Weather Stations Pressure Air Temp Water Temp Dewpoint Dewpoint Depression Visibility Wind Speed Wind Dir Waves Ship Positions
date/time (UTC)wind fromknots sea level pressurealtimeterstation pressurevisibilityair tempwater tempwave heightnotes
2017-Mar-23 09:20 200 4 5.4 6.0
2017-Mar-23 08:50 190 4 5.4 6.0
2017-Mar-23 08:20 5.4 5.0
2017-Mar-23 07:50 5.4 4.0
2017-Mar-23 07:20 210 1 5.4 3.0
2017-Mar-23 06:50 240 0 5.4 1.0
2017-Mar-23 06:20 210 1 5.4 2.0
2017-Mar-23 05:50 220 1 5.4 2.0
2017-Mar-23 05:20 230 2 5.4 1.0
2017-Mar-23 04:50 250 2 5.4 1.0
2017-Mar-23 04:20 240 2 5.4 1.0
2017-Mar-23 03:50 240 2 5.4 1.0
2017-Mar-23 03:20 240 2 5.4 1.0
2017-Mar-23 02:50 240 4 5.4 2.0
2017-Mar-23 02:20 250 4 5.4 1.0
2017-Mar-23 01:50 230 2 5.4 2.0
2017-Mar-23 01:20 240 0 5.4 4.0
2017-Mar-23 00:50 5.4 2.0
2017-Mar-23 00:20 5.4 4.0
2017-Mar-22 23:50 350 2 5.4 4.0
2017-Mar-22 23:20 350 5 5.4 4.0
2017-Mar-22 22:50 050 1 5.4 4.0
2017-Mar-22 22:20 020 4 5.4 4.0
2017-Mar-22 21:50 350 6 5.4 5.0
2017-Mar-22 21:20 040 4 5.4 5.0
2017-Mar-22 20:50 040 4 5.4 4.0
2017-Mar-22 20:20 010 6 5.4 5.0
2017-Mar-22 19:50 010 6 5.4 4.0
2017-Mar-22 19:20 340 5 5.4 4.0
2017-Mar-22 18:50 340 8 5.4 4.0 Showers in the vicinity.
2017-Mar-22 18:20 020 5 5.4 4.0
2017-Mar-22 17:50 360 6 5.4 5.0
2017-Mar-22 17:20 360 7 5.4 5.0
2017-Mar-22 16:50 350 9 5.4 5.0
2017-Mar-22 16:20 360 12 5.4 5.0
2017-Mar-22 15:50 010 7 5.4 6.0
2017-Mar-22 15:20 360 9 5.4 6.0
2017-Mar-22 14:50 360 8 5.4 6.0
2017-Mar-22 14:20 360 11 5.4 6.0
2017-Mar-22 13:50 360 11 5.4 7.0
2017-Mar-22 13:20 010 8 5.4 7.0
2017-Mar-22 12:50 030 6 5.4 6.0
2017-Mar-22 12:20 030 5 5.4 7.0
2017-Mar-22 11:50 040 4 5.4 6.0
2017-Mar-22 11:20 030 4 5.4 7.0
2017-Mar-22 10:50 5.4 5.0
2017-Mar-22 10:20 090 6 5.4 4.0 Showers in the vicinity.
2017-Mar-22 09:50 080 9 5.4 5.0 Showers in the vicinity.
2017-Mar-22 09:20 010 13 5.4 4.0 Showers in the vicinity.
2017-Mar-22 08:50 010 13 5.4 4.0 Showers in the vicinity.
2017-Mar-22 08:20 340 14 5.4 4.0 Showers in the vicinity.
2017-Mar-22 07:50 010 13 5.4 4.0 Showers in the vicinity.
2017-Mar-22 07:20 360 13 5.4 4.0 Showers in the vicinity.
2017-Mar-22 06:50 010 12 5.4 4.0 Showers in the vicinity.
2017-Mar-22 06:20 010 12 5.4 4.0
2017-Mar-22 05:50 360 12 5.4 4.0
2017-Mar-22 05:20 020 7 5.4 4.0
2017-Mar-22 04:50 010 9 5.4 4.0
2017-Mar-22 04:20 360 11 5.4 4.0
2017-Mar-22 03:50 010 11 5.4 4.0
2017-Mar-22 03:20 010 9 5.4 4.0
2017-Mar-22 02:50 010 9 5.4 4.0
2017-Mar-22 02:20 360 11 5.4 4.0
2017-Mar-22 01:50 010 11 5.4 5.0
2017-Mar-22 01:20 010 11 5.4 4.0
2017-Mar-22 00:50 020 11 5.4 5.0
2017-Mar-22 00:20 030 11 5.4 4.0
2017-Mar-21 23:50 030 12 5.4 5.0
2017-Mar-21 23:20 040 9 5.4 5.0
2017-Mar-21 22:50 040 11 5.4 4.0
2017-Mar-21 22:20 040 11 5.4 4.0
2017-Mar-21 21:50 030 13 5.4 4.0
2017-Mar-21 21:20 020 14 5.4 5.0
2017-Mar-21 20:50 020 13 5.4 5.0
2017-Mar-21 20:20 020 9 5.4 5.0
2017-Mar-21 19:50 010 13 5.4 5.0 Showers in the vicinity.
2017-Mar-21 19:20 010 12 5.4 4.0 Showers in the vicinity.
2017-Mar-21 18:50 010 13 5.4 5.0 Showers in the vicinity.
2017-Mar-21 18:20 010 8 5.4 5.0 Showers in the vicinity.
2017-Mar-21 17:50 050 4 5.4 4.0 Showers in the vicinity.
2017-Mar-21 17:20 020 7 5.4 5.0 Light rain showers.
2017-Mar-21 16:50 340 9 3.2 4.0 Rain showers.
2017-Mar-21 16:20 330 6 5.4 5.0 Showers in the vicinity.
2017-Mar-21 15:50 280 12 5.4 5.0 Light rain showers.
2017-Mar-21 15:20 280 11 5.4 6.0 Light rain showers.
2017-Mar-21 14:50 290 11 5.4 6.0 Showers in the vicinity.
2017-Mar-21 14:20 280 11 5.4 6.0
2017-Mar-21 13:50 280 13 5.4 6.0 Showers in the vicinity.
2017-Mar-21 13:20 270 13 5.4 7.0 Showers in the vicinity.
2017-Mar-21 12:50 250 13 5.4 6.0 Showers in the vicinity.
2017-Mar-21 12:20 250 13 5.4 5.0 Showers in the vicinity.
2017-Mar-21 11:50 230 12 5.4 7.0 Showers in the vicinity.
2017-Mar-21 11:20 240 13 5.4 6.0 Showers in the vicinity.
2017-Mar-21 10:50 240 11 5.4 6.0 Showers in the vicinity.
2017-Mar-21 10:20 250 11 5.4 5.0 Showers in the vicinity.